Weather History for Shannon, Ireland

Change the Weather History Date:

Friday, February 28, 2014

  Actual Average Record
Temperature  
Mean Temperature 41 °F -  
Max Temperature 48 °F 51 °F 53 °F (1999)
Min Temperature 34 °F 38 °F 28 °F (2001)
Degree Days  
Heating Degree Days 24    
Moisture  
Dew Point 35 °F    
Average Humidity 78    
Maximum Humidity 100    
Minimum Humidity 53    
Precipitation  
Precipitation 0.02 in 0.09 in - ()
Sea Level Pressure  
Sea Level Pressure 29.67 in    
Wind  
Wind Speed 12 mph ()    
Max Wind Speed 22 mph    
Max Gust Speed 32 mph    
Visibility 8.4 miles    
Events Rain , Snow    
Averages and records for this station are not official NWS values.
T = Trace of Precipitation, MM = Missing Value Source: Averaged Metar Reports

Daily Weather History Graph

Daily Weather History Graph

Search for Another Location

Airport:

Trip Planner

Search our weather history database for the weather conditions in past years. The results will help you decide how hot, cold, wet, or windy it might be!

Date:

Astronomy

Feb. 28, 2014 Rise Set
Actual Time 7:24 AM GMT 6:12 PM GMT
Civil Twilight 6:50 AM GMT 6:46 PM GMT
Nautical Twilight 6:10 AM GMT 7:26 PM GMT
Astronomical Twilight 5:31 AM GMT 8:06 PM GMT
Moon 6:34 AM GMT (2/28) 5:33 PM GMT (2/28)
Length of Visible Light 11h 56m
Length of Day
10h 47m
Waning Crescent, 1% of the Moon is Illuminated
Feb 28
Waning Crescent
Mar 1
New
Mar 8
First Quarter
Mar 16
Full
Mar 24
Last Quarter

Hourly Weather History & Observations

Time (GMT) Temp. Windchill Dew Point Humidity Pressure Visibility Wind Dir Wind Speed Gust Speed Precip Events Conditions
12:00 AM 35 °F - 34 °F 94% 29.41 in 4 mi North 17.9 mph - - Rain Rain
12:00 AM 35.6 °F 25.2 °F 33.8 °F 93% 29.39 in 3.7 mi North 18.4 mph 32.2 mph N/A Rain Rain
12:30 AM 33.8 °F 22.5 °F 33.8 °F 100% 29.44 in 3.1 mi NNW 19.6 mph - N/A Rain , Snow Rain
1:00 AM 35 °F - 34 °F 94% 29.48 in 4 mi NNW 15.7 mph - - Snow Light Snow
1:00 AM 35.6 °F 25.9 °F 33.8 °F 93% 29.47 in 4.3 mi NNW 16.1 mph - N/A Rain , Snow Light Rain
1:30 AM 37.4 °F 27.8 °F 35.6 °F 93% 29.47 in 6.2 mi NNW 17.3 mph - N/A Rain Light Rain
2:00 AM 38 °F - 35 °F 87% 29.52 in 7 mi NW 13.4 mph - - Rain Light Rain
2:00 AM 39.2 °F 31.2 °F 35.6 °F 87% 29.50 in 6.2 mi NW 13.8 mph - N/A Rain Light Rain
2:30 AM 39.2 °F 29.3 °F 35.6 °F 87% 29.53 in 6.2 mi NW 20.7 mph - N/A Rain Light Rain
3:00 AM 39 °F - 36 °F 87% 29.56 in 9 mi NW 13.4 mph - - Rain Light Rain
3:00 AM 39.2 °F 31.2 °F 37.4 °F 93% 29.53 in 6.2 mi NW 13.8 mph - N/A Rain Light Rain
3:30 AM 39.2 °F 32.5 °F 35.6 °F 87% 29.56 in 6.2 mi NNW 10.4 mph - N/A   Mostly Cloudy
4:00 AM 39 °F - 37 °F 89% 29.58 in 9 mi WNW 11.2 mph - - Rain Light Rain
4:00 AM 39.2 °F 32.5 °F 37.4 °F 93% 29.56 in 6.2 mi WNW 10.4 mph - N/A   Mostly Cloudy
4:30 AM 39.2 °F 32.5 °F 35.6 °F 87% 29.56 in 6.2 mi WNW 10.4 mph - N/A   Mostly Cloudy
5:00 AM 39 °F - 35 °F 82% 29.60 in 16 mi WNW 8.9 mph - - Rain Light Rain
5:00 AM 39.2 °F 33.6 °F 35.6 °F 87% 29.59 in 6.2 mi WNW 8.1 mph - N/A   Scattered Clouds
5:30 AM 39.2 °F 32.5 °F 35.6 °F 87% 29.59 in 6.2 mi WNW 10.4 mph - N/A   Scattered Clouds
6:00 AM 39 °F - 36 °F 84% 29.64 in 16 mi WNW 6.7 mph - -   Partly Cloudy
6:00 AM 39.2 °F 34.2 °F 35.6 °F 87% 29.62 in 6.2 mi WNW 6.9 mph - N/A   Scattered Clouds
6:30 AM 39.2 °F 35.0 °F 35.6 °F 87% 29.62 in 6.2 mi West 5.8 mph - N/A   Scattered Clouds
7:00 AM 38 °F - 35 °F 86% 29.66 in 16 mi NW 6.7 mph - -   Scattered Clouds
7:00 AM 39.2 °F 34.2 °F 35.6 °F 87% 29.65 in 6.2 mi NW 6.9 mph - N/A   Partly Cloudy
7:30 AM 39.2 °F 33.0 °F 35.6 °F 87% 29.65 in 6.2 mi WNW 9.2 mph - N/A   Partly Cloudy
8:00 AM 39 °F - 35 °F 80% 29.70 in 16 mi WNW 6.7 mph - -   Scattered Clouds
8:00 AM 39.2 °F 34.2 °F 35.6 °F 87% 29.68 in 6.2 mi WNW 6.9 mph - N/A   Partly Cloudy
8:30 AM 39.2 °F 35.9 °F 35.6 °F 87% 29.71 in 6.2 mi West 4.6 mph - N/A   Partly Cloudy
9:00 AM 42 °F - 36 °F 72% 29.73 in 12 mi West 6.7 mph - -   Mostly Cloudy
9:00 AM 42.8 °F 39.3 °F 35.6 °F 76% 29.71 in 6.2 mi West 5.8 mph - N/A   Mostly Cloudy
9:30 AM 42.8 °F 36.2 °F 35.6 °F 76% 29.74 in 6.2 mi West 12.7 mph - N/A   Partly Cloudy
10:00 AM 45 °F - 36 °F 62% 29.74 in 16 mi WNW 13.4 mph - -   Partly Cloudy
10:00 AM 44.6 °F 38.1 °F 35.6 °F 71% 29.74 in 6.2 mi WNW 13.8 mph - N/A   Scattered Clouds
10:30 AM 44.6 °F 38.1 °F 37.4 °F 76% 29.74 in 6.2 mi West 13.8 mph - N/A   Partly Cloudy
11:00 AM 46 °F - 38 °F 67% 29.76 in 19 mi West 15.7 mph - - Rain Light Rain Showers
11:00 AM 46.4 °F 39.8 °F 39.2 °F 76% 29.74 in 6.2 mi West 16.1 mph - N/A   Partly Cloudy
11:30 AM 48.2 °F - 37.4 °F 66% 29.74 in 6.2 mi West 16.1 mph - N/A   Partly Cloudy
12:00 PM 48 °F - 37 °F 57% 29.77 in 19 mi West 20.1 mph - -   Partly Cloudy
12:00 PM 48.2 °F - 37.4 °F 66% 29.74 in 6.2 mi West 20.7 mph - N/A   Partly Cloudy
12:30 PM 48.2 °F - 37.4 °F 66% 29.74 in 6.2 mi West 17.3 mph - N/A   Mostly Cloudy
1:00 PM 48 °F - 37 °F 54% 29.76 in 12 mi West 22.4 mph - - Rain Light Rain Showers
1:00 PM 48.2 °F - 37.4 °F 66% 29.74 in 6.2 mi West 21.9 mph - N/A   Scattered Clouds
1:30 PM 42.8 °F 34.0 °F 35.6 °F 76% 29.77 in 6.2 mi WNW 20.7 mph - N/A   Scattered Clouds
2:00 PM 43 °F - 36 °F 69% 29.78 in 16 mi West 15.7 mph - - Rain Light Rain Showers
2:00 PM 42.8 °F 35.4 °F 35.6 °F 76% 29.77 in 6.2 mi West 15.0 mph - N/A   Mostly Cloudy
2:30 PM 46.4 °F 40.4 °F 35.6 °F 66% 29.74 in 6.2 mi West 13.8 mph - N/A   Partly Cloudy
3:00 PM 47 °F - 36 °F 55% 29.77 in 16 mi WNW 20.1 mph - -   Partly Cloudy
3:00 PM 46.4 °F 39.0 °F 35.6 °F 66% 29.74 in 6.2 mi WNW 19.6 mph - N/A   Partly Cloudy
3:30 PM 46.4 °F 39.5 °F 35.6 °F 66% 29.74 in 6.2 mi West 17.3 mph - N/A   Scattered Clouds
4:00 PM 47 °F - 35 °F 53% 29.77 in 16 mi West 17.9 mph - -   Partly Cloudy
4:00 PM 46.4 °F 39.2 °F 33.8 °F 62% 29.74 in 6.2 mi West 18.4 mph - N/A   Scattered Clouds
4:30 PM 46.4 °F 39.8 °F 37.4 °F 71% 29.74 in 6.2 mi West 16.1 mph - N/A   Scattered Clouds
5:00 PM 45 °F - 36 °F 61% 29.76 in 16 mi West 17.9 mph - -   Partly Cloudy
5:00 PM 44.6 °F 37.2 °F 35.6 °F 71% 29.74 in 6.2 mi West 17.3 mph - N/A   Partly Cloudy
5:30 PM 44.6 °F 38.1 °F 35.6 °F 71% 29.74 in 6.2 mi West 13.8 mph - N/A   Partly Cloudy
6:00 PM 43 °F - 35 °F 63% 29.76 in 16 mi West 8.9 mph - -   Partly Cloudy
6:00 PM 42.8 °F 37.5 °F 35.6 °F 76% 29.74 in 6.2 mi West 9.2 mph - N/A   Partly Cloudy
6:30 PM 41.0 °F 38.0 °F 35.6 °F 81% 29.74 in 6.2 mi WNW 4.6 mph - N/A   Partly Cloudy
7:00 PM 41 °F - 35 °F 70% 29.75 in 16 mi NNW 2.2 mph - -   Scattered Clouds
7:00 PM 41.0 °F - 33.8 °F 76% 29.74 in 6.2 mi NNW 1.2 mph - N/A   Partly Cloudy
7:30 PM 41.0 °F 36.4 °F 35.6 °F 81% 29.74 in 6.2 mi SW 6.9 mph - N/A   Partly Cloudy
8:00 PM 40 °F - 34 °F 70% 29.73 in 12 mi SW 6.7 mph - -   Partly Cloudy
8:00 PM 39.2 °F 34.2 °F 33.8 °F 81% 29.71 in 6.2 mi SW 6.9 mph - N/A   Scattered Clouds
8:30 PM 39.2 °F 35.9 °F 33.8 °F 81% 29.71 in 6.2 mi WSW 4.6 mph - N/A   Scattered Clouds
9:00 PM 39 °F - 34 °F 77% 29.74 in 12 mi WNW 2.2 mph - -   Mostly Cloudy
9:00 PM 39.2 °F - 33.8 °F 81% 29.71 in 6.2 mi WNW 2.3 mph - N/A   Mostly Cloudy
9:30 PM 39.2 °F 37.0 °F 33.8 °F 81% 29.71 in 6.2 mi South 3.5 mph - N/A   Mostly Cloudy
10:00 PM 39 °F - 35 °F 78% 29.72 in 12 mi South 4.5 mph - -   Partly Cloudy
10:00 PM 39.2 °F 37.0 °F 33.8 °F 81% 29.71 in 6.2 mi South 3.5 mph - N/A   Mostly Cloudy
10:30 PM 39.2 °F 34.2 °F 33.8 °F 81% 29.68 in 6.2 mi SSE 6.9 mph - N/A   Mostly Cloudy
11:00 PM 38 °F - 34 °F 81% 29.70 in 12 mi SSE 8.9 mph - -   Scattered Clouds
11:00 PM 39.2 °F 33.6 °F 33.8 °F 81% 29.68 in 6.2 mi SSE 8.1 mph - N/A   Mostly Cloudy
11:30 PM 39.2 °F 34.2 °F 33.8 °F 81% 29.68 in 5.0 mi South 6.9 mph - N/A Rain Light Rain Showers